Flag for United Kingdom Weather past 2 weeks in Nottingham, England, United Kingdom

Now
54 °F

Scattered clouds.


Feels Like: 52 °F
Forecast: 43 / 65 °F
Wind: 7 mph from Northeast

Location: East Midlands

Current Time: Sep 21, 2014 at 8:20:34 PM

Latest Report: Sep 21, 2014 at 7:50 PM


Visibility: N/A

Pressure: 30.33 "Hg

Humidity: 77%

Dew point: 46 °F

Location of NottinghamLocation

Historic Weather in Nottingham — Graph

°F

Nottingham temperature yesterday

Maximum temperature yesterday: 63 °F (at 1:20 PM)
Minimum temperature yesterday: 55 °F (at 10:20 PM)
Average temperature yesterday: 59 °F

Past Weeks' High & Low Weather Summary

 TemperatureHumidityPressure
High72 °F (Sep 10, 3:20 PM)100% (Sep 7, 5:50 AM)30.39 "Hg (Sep 7, 5:50 AM)
Low45 °F (Sep 8, 6:20 AM)46% (Sep 7, 2:50 PM)29.83 "Hg (Sep 18, 2:50 PM)
Average59 °F83%30.10 "Hg
* Reported Sep 6 7:20 PM — Sep 21 7:20 PM, Nottingham, Weather by CustomWeather, © 2014

Note: Actual official high and low records may vary slightly from our data, if they occured in-between our weather recording intervals... More about our weather records

Advertising

Nottingham weather history for previous 24 hours

 ConditionsComfort  
Time TempWeatherWind HumidityBarometerVisibility
7:20 PM
Sep 21
55 °FScattered clouds.7 mph72%30.30 "HgN/A
6:50 PM57 °FScattered clouds.6 mph67%30.30 "HgN/A
6:20 PM57 °FScattered clouds.9 mph67%30.30 "HgN/A
5:50 PM61 °FScattered clouds.8 mph55%30.30 "HgN/A
5:20 PM59 °FScattered clouds.8 mph59%30.30 "HgN/A
4:50 PM63 °FScattered clouds.10 mph52%30.30 "HgN/A
4:20 PM61 °FScattered clouds.10 mph59%30.30 "HgN/A
3:20 PM63 °FScattered clouds.13 mph52%30.30 "HgN/A
2:50 PM61 °FScattered clouds.10 mph59%30.30 "HgN/A
2:20 PM61 °FScattered clouds.13 mph59%30.30 "HgN/A
1:50 PM61 °FScattered clouds.14 mph59%30.30 "HgN/A
1:20 PM61 °FScattered clouds.13 mph55%30.30 "HgN/A
12:50 PM61 °FScattered clouds.10 mph59%30.30 "HgN/A
12:20 PM63 °FScattered clouds.13 mph56%30.30 "HgN/A
11:50 AM61 °FScattered clouds.13 mph59%30.30 "HgN/A
11:20 AM61 °FPassing clouds.14 mph63%30.30 "HgN/A
10:20 AM59 °FPassing clouds.10 mph68%30.27 "HgN/A
9:50 AM57 °FPassing clouds.12 mph77%30.27 "HgN/A
9:20 AM55 °FSunny.10 mph82%30.27 "Hg10 mi
8:50 AM54 °FSunny.6 mph88%30.27 "Hg10 mi
8:20 AM52 °FSunny.6 mph94%30.24 "Hg10 mi
7:50 AM50 °FSunny.6 mph94%30.24 "Hg10 mi
7:20 AM48 °FClear.6 mph100%30.24 "Hg6 mi
6:50 AM48 °FClear.6 mph94%30.24 "Hg6 mi
6:20 AM48 °FClear.6 mph100%30.24 "Hg10 mi
5:50 AM48 °FPassing clouds.5 mph100%30.21 "HgN/A
5:20 AM48 °FPassing clouds.6 mph94%30.21 "HgN/A
4:50 AM50 °FPassing clouds.6 mph94%30.21 "HgN/A
4:20 AM50 °FPassing clouds.3 mph94%30.21 "HgN/A
3:50 AM50 °FClear.7 mph94%30.21 "Hg10 mi
3:20 AM50 °FClear.5 mph94%30.21 "Hg10 mi
2:50 AM50 °FPassing clouds.6 mph94%30.21 "HgN/A
2:20 AM50 °FPassing clouds.6 mph100%30.21 "HgN/A
1:50 AM52 °FPassing clouds.6 mph94%30.21 "HgN/A
1:20 AM52 °FPassing clouds.7 mph94%30.21 "HgN/A
12:50 AM54 °FClear.8 mph88%30.18 "Hg10 mi
12:20 AM55 °FPassing clouds.8 mph88%30.18 "HgN/A
11:50 PM
Sep 20
55 °FPassing clouds.9 mph88%30.18 "HgN/A
11:20 PM55 °FPassing clouds.8 mph88%30.18 "HgN/A
10:50 PM55 °FPassing clouds.8 mph94%30.18 "HgN/A
10:20 PM55 °FPartly cloudy.8 mph88%30.15 "HgN/A
9:20 PM57 °FPartly cloudy.10 mph88%30.15 "HgN/A
8:50 PM57 °FPartly cloudy.9 mph88%30.15 "HgN/A
8:20 PM57 °FPartly cloudy.10 mph88%30.12 "HgN/A
Weather by CustomWeather, © 2014

See weather overviewHow to use our weather pages